This demonstration page uses our WeatherBlox Daily Observations layout. Learn more.

Left ArrowRight Arrow

39.01783, -85.05884

Hourly Observations for December 2, 2020

Temp ( °F °C ) Dew Point ( °F °C ) Humidity (%) Winds ( mph kmh ) Pressure ( in mb ) Visibility ( mi km ) Precip ( " mm )
12:31 am 00:31 Partly Cloudy 26 -3.3 20 -6.7 78 78 WSW 5 7 30.24 1024 10 16 N/A
12:52 am 00:52 Partly Cloudy 25 -3.9 19 -7.2 78 78 W 6 9 30.20 1023 10 16 N/A
1:52 am 01:52 Mostly Clear 23 -5 19 -7.2 85 85 W 8 13 30.21 1023 10 16 N/A
2:52 am 02:52 Mostly Clear 23 -5 19 -7.2 85 85 WSW 3 6 30.23 1024 10 16 N/A
3:52 am 03:52 Clear 23 -5 18 -7.8 81 81 W 6 9 30.24 1024 10 16 N/A
4:52 am 04:52 Clear 22 -5.6 18 -7.8 85 85 W 3 6 30.27 1025 10 16 N/A
5:52 am 05:52 Clear 22 -5.6 18 -7.8 85 85 SW 5 7 30.29 1026 10 16 N/A
6:52 am 06:52 Clear 22 -5.6 18 -7.8 85 85 SW 7 11 30.30 1026 10 16 N/A
7:52 am 07:52 Mostly Sunny 22 -5.6 18 -7.8 85 85 WSW 6 9 30.34 1027 10 16 N/A
8:52 am 08:52 Partly Cloudy 25 -3.9 20 -6.7 81 81 WSW 9 15 30.36 1028 10 16 N/A
9:52 am 09:52 Mostly Sunny 28 -2.2 21 -6.1 75 75 WSW 8 13 30.38 1029 10 16 N/A
10:52 am 10:52 Mostly Sunny 32 undefined 23 -5 69 69 SW 5 7 30.39 1029 10 16 N/A
11:52 am 11:52 Sunny 34 1.1 25 -3.9 70 70 WSW 5 7 30.38 1029 10 16 N/A
12:52 pm 12:52 Mostly Sunny 37 2.8 27 -2.8 67 67 SW 7 11 30.38 1029 10 16 N/A
1:52 pm 13:52 Mostly Sunny 39 3.9 28 -2.2 65 65 WSW 6 9 30.36 1028 10 16 N/A
2:52 pm 14:52 Mostly Sunny 41 5 26 -3.3 55 55 SW 6 9 30.35 1028 10 16 N/A
3:52 pm 15:52 Mostly Sunny 41 5 26 -3.3 55 55 SSW 6 9 30.35 1028 10 16 N/A
4:52 pm 16:52 Mostly Sunny 39 3.9 25 -3.9 57 57 SW 3 6 30.35 1028 10 16 N/A
5:52 pm 17:52 Mostly Clear 37 2.8 25 -3.9 62 62 SSW 5 7 30.35 1028 10 16 N/A
6:52 pm 18:52 Mostly Clear 35 1.7 25 -3.9 67 67 S 3 6 30.35 1028 10 16 N/A
7:52 pm 19:52 Mostly Clear 30 -1.1 24 -4.4 79 79 SSW 5 7 30.36 1028 10 16 N/A
8:52 pm 20:52 Partly Cloudy 30 -1.1 26 -3.3 85 85 SSW 5 7 30.36 1028 10 16 N/A
9:52 pm 21:52 Mostly Clear 31 -0.6 23 -5 72 72 SW 6 9 30.37 1028 10 16 N/A
10:52 pm 22:52 Mostly Clear 30 -1.1 23 -5 75 75 SSW 3 6 30.35 1028 10 16 N/A
11:52 pm 23:52 Mostly Clear 30 -1.1 23 -5 75 75 SSW 3 6 30.33 1027 10 16 N/A

Powered by AerisWeather